Retour au catalogue

SL-16 R/B

ActifLEO
NORAD 17590·ROCKET BODY·🇷🇺 Russia

Lancé Mar 18, 1987 depuis Baikonur Cosmodrome

Loading…

Prochains Passages (prochaines 24 heures)

TLE

FraisSource: Space-Track

Époque: Sep 14, 2026, 10:25 UTC

1 17590U 87027B   26257.43421002 -.00000040  00000-0  39510-5 0  9992
2 17590  71.0005 238.7559 0006035 215.6533 144.4189 14.17183065 42086

Suivez SL-16 R/B en temps réel avec AllMySat

Download on the App Store